Location: T�bingen+AIT
(48.5342°N, 9.0700°E)
Time: 20:25:40
(UTC+02:00)

Cosmos 1356 Rocket - Pass Details

Date: 14 September 2017
Orbit: 544 x 600 km, 81.2° (Epoch: 20 September)

Event Time Altitude Azimuth Distance (km) Brightness Sun altitude
Rises 20:58:25 0° 355° (N) 2,808 7.3 -13.7°
Reaches altitude 10° 21:00:45 10° 4° (N) 1,913 6.3 -14.1°
Maximum altitude 21:04:40 36° 72° (ENE) 952 4.1 -14.7°
Enters shadow 21:06:17 26° 115° (ESE) 1,176 4.4 -14.9°
